date,batt_volt,AirTemp_C,Solar_kW,RH,Manual_BP,StationID,WS_ms,PTemp,WS_15min_max,Prog_Sig,Solar_Raw,Bar_mbar,Solar_MJ,Max_WS_2min,Pressure_Raw,Rain_mm,WD_15min_ave,Max_AirTemp_1min,WindDir,WS_15min_med,WS_15min_ave,Elevation_Correction
2021-12-01T00:07:17Z,13.68663,-0.7809982,0.0,69.23597,0,1156,5.8996,-0.5424461,10.7212,43690,0.0,1010.363,0.0,10.72,1008.563,0,238.81372854,-0.849,269.9445,6.3112,6.44489990476,1.80078
2021-12-01T00:22:22Z,13.68663,-1.154503,0.0,66.04414,0,1156,4.1552,-0.5853691,10.6428,43690,0.0,1010.363,0.0,6.233,1008.563,0,245.892131361,-1.019,279.8533,5.096,5.32627132749,1.80078
2021-12-01T00:37:21Z,13.69216,-1.290329,0.0,65.77249,0,1156,4.2924,-0.6712227,9.3884,43690,0.0,1010.363,0.0,7.879,1008.563,0,253.189667552,-1.222,239.0373,4.41,4.9504327076,1.80078
2021-12-01T00:52:22Z,13.70322,-1.663841,0.0,66.68929,0,1156,5.0176,-0.8610001,8.6044,43690,0.0,1010.363,0.0,7.154,1008.563,0,256.89740776,-1.528,280.1185,4.3904,4.77917171765,1.80078
2021-12-01T01:07:19Z,13.71428,-1.867577,0.0,66.75721,0,1156,6.3112,-1.202145,7.5068,43690,0.0,1011.016,0.0,7.448001,1009.216,0,267.776246834,-1.766,275.3691,3.9396,3.92127573964,1.80078
2021-12-01T01:22:22Z,13.72534,-2.309002,0.0,68.3871,0,1156,4.7236,-1.60881,5.6252,43690,0.0,1011.016,0.0,5.449,1009.216,0,288.210365216,-2.139,6.123598,3.0674,3.14718352941,1.80078
2021-12-01T01:37:21Z,13.73087,-2.309002,0.0,67.36842,0,1156,0.8231999,-1.949959,7.154,43690,0.0,1011.016,0.0,5.919,1009.216,0,285.215597372,-2.241,135.3219,4.1062,4.00843058706,1.80078
2021-12-01T01:52:22Z,13.73847,-2.541592,0.0,68.93978,0,1156,3.234,-2.205254,6.2328,43690,0.0,1011.016,0.0,4.88,1009.216,0,301.877770161,-2.406,262.362,3.0968,3.06780591598,1.80078
2021-12-01T02:07:20Z,13.74426,-2.608276,0.0,70.09675,0,1156,0.9799999,-2.376957,5.3508,43690,0.0,1011.345,0.0,2.94,1009.544,0,338.070017343,-2.54,4.653758,2.45,2.47771834201,1.80078
2021-12-01T02:22:21Z,13.73908,-2.709015,0.0,71.83099,0,1156,2.156,-2.356625,4.3512,43690,0.0,1011.345,0.0,3.352,1009.544,0,8.53574515342,-2.642,8.825532,2.0384,2.00778224497,1.80078
2021-12-01T02:37:21Z,13.73371,-2.776466,0.0,72.2055,0,1156,2.9988,-2.33403,4.018,43690,0.0,1011.345,0.0,2.293,1009.544,0,25.0328011356,-2.674,12.2498,1.5484,1.62158105917,1.80078
2021-12-01T02:52:22Z,13.7335,-2.675251,0.0,71.79666,0,1156,1.862,-2.313698,3.2536,43690,0.0,1011.345,0.0,1.999,1009.544,0,3.99469989349,-2.641,31.39558,1.4112,1.41143194438,1.80078
2021-12-01T03:07:26Z,13.73367,-2.642029,0.0,71.65938,0,1156,1.0584,-2.270771,2.9596,43690,0.0,1011.199,0.0,2.058,1009.398,0,12.621335644,-2.54,33.10697,1.519,1.44601881824,1.80078
2021-12-01T03:22:25Z,13.73322,-2.709595,0.0,72.64498,0,1156,0.9211999,-2.270771,3.1556,43690,0.0,1011.199,0.0,3.156,1009.398,0,29.1453518731,-2.642,31.97398,1.8032,1.76492780828,1.80078
2021-12-01T03:37:23Z,13.73874,-2.844921,0.0,72.71392,0,1156,1.6856,-2.356625,2.548,43690,0.0,1011.199,0.0,1.784,1009.398,0,35.4644005767,-2.641,50.71057,1.2936,1.28130650059,1.80078
2021-12-01T03:52:27Z,13.7453,-3.013847,0.0,72.44394,0,1156,1.5484,-2.483143,3.2928,43690,0.0,1011.199,0.0,2.058,1009.398,0,34.1753701226,-2.879,33.75962,1.3426,1.37845646412,1.80078
2021-12-01T04:07:25Z,13.74654,-3.077633,0.0,72.65588,0,1156,0.3136,-2.720364,2.3716,43690,0.0,1011.092,0.0,1.294,1009.291,0,43.7918535107,-3.044,302.5443,1.0976,1.05886389527,1.80078
2021-12-01T04:22:25Z,13.75767,-3.145386,0.0,72.82608,0,1156,1.2936,-2.998249,1.6856,43690,0.0,1011.092,0.0,1.156,1009.291,0,25.5881090239,-3.077,6.053328,0.4116,0.493363305917,1.80078
2021-12-01T04:37:26Z,13.7632,-3.07745,0.0,72.48641,0,1156,0.9211999,-3.255806,2.156,43690,0.0,1011.092,0.0,2.156,1009.291,0,327.408763262,-2.976,293.4779,0.686,0.675330163314,1.80078
2021-12-01T04:52:26Z,13.76873,-3.009514,0.0,71.94293,0,1156,0.6664,-3.36425,2.3716,43690,0.0,1011.092,0.0,1.49,1009.291,0,356.715400064,-2.942,6.198029,1.0192,1.04425087692,1.80078
2021-12-01T05:07:25Z,13.76873,-3.11142,0.0,73.09782,0,1156,1.9992,-3.407173,1.96,43690,0.0,1011.923,0.0,1.607,1010.122,0,49.9112427817,-3.01,50.59714,1.1564,1.19061300533,1.80078
2021-12-01T05:22:25Z,13.7632,-2.80571,0.0,72.75814,0,1156,0.8231999,-3.298729,2.352,43690,0.0,1011.923,0.0,1.98,1010.122,0,58.7290856207,-2.806,49.70482,1.372,1.39009230237,1.80078
2021-12-01T05:37:25Z,13.75213,-2.771744,0.0,72.35054,0,1156,1.3916,-3.127029,2.548,43690,0.0,1011.923,0.0,2.234,1010.122,0,56.7197029012,-2.67,43.21738,1.6268,1.64094911006,1.80078
2021-12-01T05:52:24Z,13.7466,-2.83968,0.0,72.41847,0,1156,1.8032,-2.955326,2.254,43690,0.0,1011.923,0.0,2.254,1010.122,0,58.5550928705,-2.704,77.36684,1.568,1.57379881598,1.80078
2021-12-01T06:07:28Z,13.7466,-2.80571,0.0,72.35054,0,1156,1.3328,-2.826546,2.2932,43690,0.0,1012.086,0.0,2.136,1010.285,0,59.3984850442,-2.704,59.01392,1.6072,1.60258823529,1.80078
2021-12-01T06:22:26Z,13.7466,-2.669842,0.0,71.05978,0,1156,1.0584,-2.720364,2.3912,43690,0.0,1012.086,0.0,1.901,1010.285,0,50.412801653,-2.704,35.54823,1.568,1.57623431893,1.80078
2021-12-01T06:37:29Z,13.74107,-2.703808,0.0,71.09374,0,1156,1.7444,-2.63451,2.5872,43690,0.0,1012.086,0.0,1.744,1010.285,0,49.4515255196,-2.67,56.89164,1.47,1.52879999882,1.80078
2021-12-01T06:52:28Z,13.73554,-2.703831,0.0,71.12767,0,1156,1.6856,-2.54866,2.2932,43690,0.0,1012.086,0.0,2.293,1010.285,0,51.7114162573,-2.534,44.37496,1.4504,1.47069585562,1.80078
2021-12-01T07:07:25Z,13.73546,-2.568897,0.0,69.83516,0,1156,1.9012,-2.483143,2.3324,43690,0.0,1012.331,0.0,2.215,1010.53,0,53.7851699509,-2.5,51.70519,1.6268,1.62018934911,1.80078
2021-12-01T07:22:30Z,13.73447,-2.433407,0.0,68.50979,0,1156,1.274,-2.419884,2.2932,43690,0.0,1012.331,0.0,1.921,1010.53,0,54.0354858337,-2.399,71.88975,1.6268,1.61792235235,1.80078
2021-12-01T07:37:28Z,13.7348,-2.468754,0.0,68.98278,0,1156,1.3524,-2.33403,1.9992,43690,0.0,1012.331,0.0,1.686,1010.53,0,53.9090227944,-2.401,50.85874,1.4504,1.45283550178,1.80078
2021-12-01T07:52:26Z,13.73329,-2.505669,0.0,69.96225,0,1156,1.764,-2.291103,2.2736,43690,0.0,1012.331,0.0,2.038,1010.53,0,64.0172687782,-2.505,62.0915,1.568,1.57878579822,1.80078
2021-12-01T08:07:29Z,13.73323,-2.67543,0.0,73.08687,0,1156,2.9204,-2.24818,2.9988,43690,0.0,1012.086,0.0,2.666,1010.285,0,86.2101506249,-2.641,89.50832,2.0384,2.05650117647,1.80078
2021-12-01T08:22:27Z,13.73323,-2.743866,0.0,75.12358,0,1156,2.8224,-2.24818,3.0184,43690,0.0,1012.086,0.0,2.979,1010.285,0,88.6853054878,-2.676,94.59492,2.5088,2.48026982249,1.80078
2021-12-01T08:37:30Z,13.73333,-2.709961,0.0,75.53101,0,1156,2.3324,-2.227844,2.8224,43690,0.0,1012.086,0.0,2.489,1010.285,0,88.5533250718,-2.642,94.04018,2.3912,2.31821882353,1.80078
2021-12-01T08:52:28Z,13.73319,-2.743923,0.0,75.12346,0,1156,1.6464,-2.205254,2.6852,43690,0.0,1012.086,0.0,1.842,1010.285,0,92.6686675618,-2.642,81.81496,2.156,2.00928994083,1.80078
2021-12-01T09:07:31Z,13.73874,-2.676163,0.0,75.25898,0,1156,1.5484,-2.205254,2.45,43690,0.0,1012.815,0.0,2.078,1011.014,0,81.4227732459,-2.608,81.95926,1.8228,1.82729647059,1.80078
2021-12-01T09:22:29Z,13.73283,-2.710125,0.0,75.66652,0,1156,1.3132,-2.205254,2.2148,43690,0.0,1012.815,0.0,1.744,1011.014,0,77.4733084545,-2.574,95.84822,1.6464,1.67017514793,1.80078
2021-12-01T09:37:28Z,13.7332,-2.642372,0.0,75.93786,0,1156,1.2544,-2.227844,1.8228,43690,0.0,1012.815,0.0,1.215,1011.014,0,63.6173645869,-2.574,18.03626,1.2544,1.23050886509,1.80078
2021-12-01T09:52:33Z,13.73321,-2.506222,0.0,70.60648,0,1156,1.8424,-2.24818,2.7244,43690,0.0,1012.815,0.0,2.724,1011.014,0,51.927313452,-2.472,65.32169,1.568,1.61630823471,1.80078
2021-12-01T10:07:32Z,13.73321,-2.540024,0.0,70.33509,0,1156,2.2736,-2.291103,2.6656,43690,0.0,1013.877,0.0,2.646,1012.077,0,61.0080188107,-2.54,71.80836,1.9992,2.03399289941,1.80078
2021-12-01T10:22:32Z,13.73388,-2.471039,0.0,70.64275,0,1156,2.1756,-2.291103,2.8812,43690,0.0,1013.877,0.0,2.47,1012.077,0,60.9615245817,-2.471,48.90244,2.156,2.14219881657,1.80078
2021-12-01T10:37:32Z,13.73358,-2.403469,0.0,69.35151,0,1156,2.646,-2.291103,3.724,43690,0.0,1013.877,0.0,3.254,1012.077,0,56.8064413317,-2.403,45.86369,2.4304,2.44443313609,1.80078
2021-12-01T10:52:31Z,13.73327,-2.336178,0.0,70.40316,0,1156,2.0972,-2.24818,3.2144,43690,0.0,1013.877,0.0,2.783,1012.077,0,52.8921026886,-2.302,12.51465,2.2344,2.27336804734,1.80078
2021-12-01T11:07:30Z,13.73321,-2.302376,0.0,71.31983,0,1156,1.4112,-2.184921,3.2928,43690,0.0,1014.609,0.0,1.862,1012.808,0,49.5852735049,-2.234,56.73764,1.7052,1.74370414201,1.80078
2021-12-01T11:22:30Z,13.73274,-2.302586,0.00048318,71.38736,0,1156,1.2936,-2.141994,2.5088,43690,0.0338226,1014.609,2.4159e-06,2.058,1012.808,0,50.3050023281,-2.235,58.2082,1.7052,1.68873135976,1.80078
2021-12-01T11:37:30Z,13.72751,-2.235348,0.00289908,72.47281,0,1156,1.5876,-2.078735,2.1756,43690,0.2029356,1014.609,1.44954e-05,1.901,1012.808,0,47.6049966482,-2.167,31.58714,1.4308,1.42581301716,1.80078
2021-12-01T11:52:35Z,13.7272,-2.303196,0.008697241,73.49178,0,1156,1.7836,-2.035809,2.4892,43690,0.6088068,1014.609,4.34862e-05,2.47,1012.808,0,46.6867184372,-2.269,36.89192,1.7052,1.71269411706,1.80078
2021-12-01T12:07:32Z,13.72729,-2.236118,0.01836084,74.03351,0,1156,2.744,-1.992886,2.7832,43690,1.285259,1014.991,9.180421e-05,2.724,1013.19,0,49.0360073082,-2.201,28.57252,1.8816,1.90630295858,1.80078
2021-12-01T12:22:32Z,13.72657,-2.238338,0.03478896,73.68957,0,1156,2.0188,-1.927364,3.43,43690,2.435227,1014.991,0.0001739448,3.43,1013.19,0,44.4719430063,-2.17,68.01546,2.0384,2.07330887574,1.80078
2021-12-01T12:37:32Z,13.72625,-2.306156,0.03092352,75.25186,0,1156,1.7248,-1.8867,2.9596,43690,2.164647,1014.991,0.0001546176,1.882,1013.19,0,44.0610424385,-2.205,51.01776,1.7836,1.8312662716,1.80078
2021-12-01T12:52:32Z,13.71984,-2.239765,0.04735165,76.84479,0,1156,1.8816,-1.821182,2.9792,43690,3.314615,1014.991,0.0002367582,2.744,1013.19,0,40.008879716,-2.239,38.0689,1.6856,1.74590768876,1.80078
2021-12-01T13:07:32Z,13.71441,-1.901417,0.07779199,77.1819,0,1156,0.686,-1.714996,3.0772,43690,5.445439,1015.426,0.0003889599,2.685,1013.625,0,30.2826088548,-1.901,102.6309,1.6464,1.64813964024,1.80078
2021-12-01T13:22:34Z,13.70876,-1.765694,0.09420789,77.41938,0,1156,0.588,-1.522961,2.9008,43690,6.594552,1015.426,0.0004710394,2.489,1013.625,0,40.1054206359,-1.732,70.71071,1.3132,1.33906271124,1.80078
2021-12-01T13:37:34Z,13.70876,-1.731735,0.07826229,77.52125,0,1156,1.078,-1.394184,2.5088,43690,5.47836,1015.426,0.0003913114,1.999,1013.625,0,52.4905537957,-1.664,68.03465,1.5288,1.46211360355,1.80078
2021-12-01T13:52:33Z,13.6977,-1.358223,0.09275541,75.65367,0,1156,0.4312,-1.351257,2.1952,43690,6.492878,1015.426,0.000463777,1.294,1013.625,0,51.757502801,-1.256,51.78541,1.2936,1.32073845621,1.80078
2021-12-01T14:07:33Z,13.69217,-1.018662,0.09661967,72.90325,0,1156,1.0388,-1.032703,2.058,43690,6.763377,1015.417,0.0004830984,2.058,1013.617,0,33.2653288701,-0.883,32.06452,1.1564,1.12079525799,1.80078
2021-12-01T14:22:35Z,13.68111,-0.5093269,0.1497605,70.15282,0,1156,0.8428,-0.691555,2.156,43690,10.48323,1015.417,0.0007488024,1.254,1013.617,0,17.8186958507,-0.475,30.66622,1.0192,1.02314318639,1.80078
2021-12-01T14:37:35Z,13.66452,-0.06858062,0.1811375,67.94453,0,1156,0.0196,-0.2871513,1.47,43690,12.67963,1015.417,0.0009056875,0.8430001,1013.617,0,14.3834132429,0.068,15.93556,0.5684,0.570371588757,1.80078
2021-12-01T14:52:35Z,13.64998,0.227726,0.0995015,67.69122,0,1156,0.5488,0.160183,1.2152,43690,6.965106,1015.417,0.0004975075,0.6860001,1013.617,0,111.528594113,0.262,178.384,0.5096,0.490115966864,1.80078
2021-12-01T15:07:34Z,13.63803,0.2924728,0.1478031,69.92629,0,1156,0.588,0.541996,1.2544,43690,10.34622,1015.341,0.0007390155,1.117,1013.54,0,184.03889905,0.462,165.9582,0.4704,0.510295853846,1.80078
2021-12-01T15:22:36Z,13.62671,0.6653252,0.1550484,70.1969,0,1156,0.0196,0.8831406,0.9799999,43690,10.85339,1015.341,0.0007752418,0.588,1013.54,0,164.590873291,0.869,157.8582,0.0196,0.173036684615,1.80078
2021-12-01T15:37:36Z,13.62119,0.6992722,0.09321323,72.6409,0,1156,0.6076,1.224289,2.058,43690,6.524926,1015.341,0.0004660662,0.549,1013.54,0,144.950378384,0.767,160.6056,0.6272,0.719517153254,1.80078
2021-12-01T15:52:36Z,13.61566,0.8011055,0.07533852,75.35645,0,1156,1.568,1.416325,3.9004,43690,5.273696,1015.341,0.0003766926,2.764,1013.54,0,141.373610477,0.8010001,167.2815,1.1368,1.28304614556,1.80078
2021-12-01T16:07:39Z,13.61566,0.936882,0.1086595,75.96745,0,1156,3.822,1.522511,4.0768,43690,7.606162,1015.406,0.0005432972,4.057,1013.605,0,154.675574689,0.869,150.9654,2.4794,2.53220470588,1.80078
2021-12-01T16:22:37Z,13.61566,1.038715,0.08354477,76.03533,0,1156,3.1948,1.606102,4.6256,43690,5.848134,1015.406,0.0004177238,4.351,1013.605,0,154.661522817,1.208,146.6032,2.7244,2.72080473373,1.80078
2021-12-01T16:37:41Z,13.61013,1.344212,0.0970613,77.59677,0,1156,3.4104,1.671619,5.3704,43690,6.794291,1015.406,0.0004853065,5.41,1013.605,0,153.117601532,1.31,156.2434,3.234,3.35886352941,1.80078
2021-12-01T16:52:39Z,13.61013,1.785488,0.1525881,74.06657,0,1156,2.2344,1.734879,5.4292,43690,10.68117,1015.406,0.0007629406,4.841,1013.605,0,158.197231085,1.752,169.571,3.724,3.75183431953,1.80078
2021-12-01T17:07:37Z,13.6046,2.057045,0.0960886,73.59134,0,1156,4.018,1.904324,6.2524,43690,6.726202,1015.65,0.000480443,6.252,1013.849,0,162.797716809,2.023,157.569,4.2532,4.2864852071,1.80078
2021-12-01T17:22:38Z,13.59829,2.191814,0.07629085,73.55564,0,1156,2.646,2.053432,6.1152,43690,5.340359,1015.65,0.0003814542,5.116,1013.849,0,155.318789432,2.26,160.6018,4.2924,4.2646816568,1.80078
2021-12-01T17:37:38Z,13.60308,2.3913,0.06856519,72.12291,0,1156,5.7624,2.161877,7.2912,43690,4.799564,1015.65,0.000342826,6.037,1013.849,0,164.037099262,2.459,164.4175,5.3312,5.10701774556,1.80078
2021-12-01T17:52:38Z,13.59147,2.797043,0.0849822,71.50941,0,1156,6.4484,2.268063,7.898799,43690,5.948754,1015.65,0.000424911,7.448001,1013.849,0,166.097663001,2.865,165.761,5.8016,5.77759285799,1.80078
2021-12-01T18:07:43Z,13.58034,3.135864,0.1477532,67.46978,0,1156,7.154,2.503025,8.2712,43690,10.34272,1015.069,0.0007387658,7.174,1013.269,0,165.3902634,3.272,165.4214,6.2328,6.17561398235,1.80078
2021-12-01T18:22:40Z,13.56913,3.577122,0.230804,67.60563,0,1156,6.1152,2.864506,7.938,43690,16.15628,1015.069,0.00115402,6.311,1013.269,0,167.743176095,3.441,164.0241,6.1348,6.09793326786,1.80078
2021-12-01T18:37:44Z,13.55646,3.130424,0.05890001,68.78471,0,1156,5.9584,3.291504,9.094401,43690,4.123001,1015.069,0.0002945,6.664,1013.269,0,167.449249789,3.334,169.6169,6.0662,6.18679758824,1.80078
2021-12-01T18:52:43Z,13.55579,3.128666,0.06082929,69.01944,0,1156,4.1748,3.463207,7.252,43690,4.25805,1015.069,0.0003041465,5.116,1013.269,0,163.590822172,3.197,159.5153,5.2724,5.32516922485,1.80078
2021-12-01T19:07:42Z,13.55578,3.671554,0.2848354,69.6641,0,1156,5.194,3.549057,6.6836,43690,19.93848,1015.15,0.001424177,6.174,1013.349,0,162.474303735,3.705,158.2865,4.802,4.81127810651,1.80078
2021-12-01T19:22:43Z,13.5392,3.535824,0.04586178,68.34072,0,1156,6.0956,4.041576,7.3892,43690,3.210324,1015.15,0.0002293089,6.096,1013.349,0,161.803179392,3.773,169.8749,5.6448,5.70742718935,1.80078
2021-12-01T19:37:42Z,13.54473,4.248413,0.1737691,66.57622,0,1156,5.5664,4.15002,6.5856,43690,12.16384,1015.15,0.0008688457,5.978,1013.349,0,162.118448008,4.282,167.3693,5.1744,5.14134673964,1.80078
2021-12-01T19:52:42Z,13.54397,3.330326,0.01882492,66.53937,0,1156,2.3324,4.23587,6.7228,43690,1.317745,1015.15,9.412462e-05,2.47,1013.349,0,156.289175161,3.433,145.1739,3.7632,3.72759526627,1.80078
2021-12-01T20:07:40Z,13.56113,3.230152,0.01834223,65.21848,0,1156,1.9796,3.826946,5.3116,43690,1.283956,1015.213,9.171116e-05,4.175,1013.412,0,151.435928896,3.332,142.216,3.8024,3.66032899408,1.80078
2021-12-01T20:22:41Z,13.57787,2.857132,0.0106208,68.51033,0,1156,1.2152,3.228245,6.5464,43690,0.7434561,1015.213,5.310401e-05,4.234,1013.412,0,143.963654683,3.129,135.6878,2.058,2.19925917041,1.80078
2021-12-01T20:37:42Z,13.5834,2.113396,0.001931107,71.63689,0,1156,0.7448,2.864506,4.018,43690,0.1351775,1015.213,9.655537e-06,2.862,1013.412,0,146.738666167,2.419,108.6152,1.0976,1.20429822071,1.80078
2021-12-01T20:52:44Z,13.59115,2.354683,0.0,73.44194,0,1156,1.5288,2.695061,3.2928,43690,0.0,1015.213,0.0,2.587,1013.412,0,138.709047433,2.253,166.6239,0.784,0.954253247929,1.80078
2021-12-01T21:07:45Z,13.59123,2.898045,0.0,71.27049,0,1156,3.4496,2.67247,5.782,43690,0.0,1016.539,0.0,4.939,1014.738,0,151.050198348,2.966,145.0833,1.9992,2.23880709527,1.80078
2021-12-01T21:22:42Z,13.58018,3.203796,0.0,72.35702,0,1156,4.6256,2.778652,5.9388,43690,0.0,1016.539,0.0,5.351,1014.738,0,149.792992651,3.204,147.7831,3.773,3.55214999881,1.80078
2021-12-01T21:37:46Z,13.58018,3.169857,0.0,75.20787,0,1156,1.1172,2.821579,6.2132,43690,0.0,1016.539,0.0,6.213,1014.738,0,148.997210001,3.204,148.8434,4.0572,3.85018224852,1.80078
2021-12-01T21:52:42Z,13.58018,2.219578,0.0,79.04292,0,1156,0.9408,2.75832,3.3516,43690,0.0,1016.539,0.0,1.254,1014.738,0,142.17962834,2.423,117.6145,1.1172,1.28531666071,1.80078
2021-12-01T22:07:43Z,13.58571,2.117764,0.0,80.90954,0,1156,0.588,2.629543,3.5084,43690,0.0,1017.029,0.0,2.764,1015.228,0,114.721354223,2.321,121.8795,1.1564,1.27214436982,1.80078
2021-12-01T22:22:44Z,13.59123,2.491089,0.0,81.4865,0,1156,3.1752,2.566284,7.1344,43690,0.0,1017.029,0.0,2.509,1015.228,0,147.344351191,2.593,141.3494,2.4304,2.79189822249,1.80078
2021-12-01T22:37:45Z,13.59123,3.33955,0.0,78.26234,0,1156,5.8212,2.566284,6.566,43690,0.0,1017.029,0.0,6.174,1015.228,0,148.088925523,3.373,150.8916,3.7828,3.88845443136,1.80078
2021-12-01T22:52:44Z,13.58018,3.543182,0.0,86.47547,0,1156,9.074799,2.67247,10.7212,43690,0.0,1017.029,0.0,10.72,1015.228,0,155.846614528,3.509,162.4819,6.4484,6.66849417197,1.80078
2021-12-01T23:07:43Z,13.57465,3.543182,0.0,88.7833,0,1156,10.878,2.907433,12.6812,43690,0.0,1017.11,0.0,12.68,1015.31,0,160.213974434,3.577,159.3735,10.3782,10.3067998929,1.80078
2021-12-01T23:22:43Z,13.57393,3.302933,0.0,90.16919,0,1156,8.82,3.079136,12.152,43690,0.0,1017.11,0.0,9.21,1015.31,0,160.977179978,3.405,161.9417,9.1826,9.30527282941,1.80078
2021-12-01T23:37:44Z,13.57315,3.062977,0.0,90.33384,0,1156,6.487599,3.142391,8.878799,43690,0.0,1017.11,0.0,8.349999,1015.31,0,165.349263201,3.13,170.5823,7.3304,7.18429072121,1.80078
2021-12-01T23:52:46Z,13.56697,2.995068,0.0,90.33375,0,1156,5.1744,3.142391,6.958,43690,0.0,1017.11,0.0,6.252,1015.31,0,161.554282596,3.131,164.4865,5.5762,5.55463998824,1.80078
2021-12-02T00:07:47Z,13.57902,3.12896,0.0,90.02449,0,1156,4.6452,3.013615,6.7228,43690,0.0,1017.618,0.0,5.86,1015.818,0,161.546157145,3.197,160.0705,5.3704,5.36935621302,1.80078
2021-12-02T00:22:49Z,13.59082,3.066528,0.0,90.03586,0,1156,4.0768,2.735729,6.1348,43690,0.0,1017.618,0.0,4.92,1015.818,0,164.892510795,3.168,162.3798,4.7432,4.6956,1.80078
2021-12-02T00:37:46Z,13.5857,3.644966,0.0,89.63169,0,1156,5.1548,2.566284,6.0368,43690,0.0,1017.618,0.0,5.978,1015.818,0,164.058500422,3.645,163.6866,4.8216,4.85635733333,1.80078
2021-12-02T00:52:45Z,13.59112,3.372757,0.0,79.27915,0,1156,3.9004,2.543694,7.0952,43690,0.0,1017.618,0.0,4.998,1015.818,0,182.388194581,3.34,201.5146,4.7432,4.61806153254,1.80078
2021-12-02T01:07:48Z,13.60229,2.796524,0.0,76.76902,0,1156,1.8424,2.202545,5.096,43690,0.0,1019.064,0.0,3.9,1017.263,0,204.561739219,2.83,192.9638,3.0772,3.10770177515,1.80078
2021-12-02T01:22:46Z,13.60933,2.123184,0.0,77.72933,0,1156,4.3316,1.841064,4.2336,43690,0.0,1019.064,0.0,4.234,1017.263,0,208.455285907,2.36,198.9412,2.8812,2.86855857988,1.80078
2021-12-02T01:37:45Z,13.62114,1.887253,0.0,77.52875,0,1156,2.5284,1.479584,4.1552,43690,0.0,1019.064,0.0,3.626,1017.263,0,214.514714858,1.955,220.254,2.6852,2.63695384497,1.80078
2021-12-02T01:52:49Z,13.63776,1.446014,0.0,76.54444,0,1156,1.5484,1.095512,3.8612,43690,0.0,1019.064,0.0,2.96,1017.263,0,210.858231632,1.65,223.0257,2.156,2.10561647059,1.80078
2021-12-02T02:07:49Z,13.64329,1.140514,0.0,77.39305,0,1156,1.0976,0.7136994,2.646,43690,0.0,1019.479,0.0,1.901,1017.678,0,300.320857844,1.208,50.65918,1.617,1.59179999583,1.80078
2021-12-02T02:22:49Z,13.65435,-0.5567017,0.0,85.03053,0,1156,1.1564,0.372551,2.2736,43690,0.0,1019.479,0.0,2.117,1017.678,0,85.8603492939,-0.353,94.59434,1.0192,1.03972779882,1.80078
2021-12-02T02:37:51Z,13.66624,0.4968186,0.0,84.72762,0,1156,1.6464,0.05399704,3.1164,43690,0.0,1019.479,0.0,3.116,1017.678,0,100.259781951,0.497,224.5027,1.2544,1.34903667219,1.80078
2021-12-02T02:52:51Z,13.65445,1.480419,0.0,76.95263,0,1156,1.8816,0.07432938,3.6064,43690,0.0,1019.479,0.0,2.92,1017.678,0,220.652147209,1.447,216.4246,1.9796,1.97774437633,1.80078
2021-12-02T03:07:51Z,13.64403,1.854118,0.0,71.8275,0,1156,1.5288,0.3092918,3.9004,43690,0.0,1019.563,0.0,2.038,1017.762,0,207.580186697,1.956,200.9534,1.862,1.98203550296,1.80078
2021-12-02T03:22:52Z,13.63779,1.683708,0.0,71.9621,0,1156,1.764,0.5645866,2.7048,43690,0.0,1019.563,0.0,2.411,1017.762,0,214.304880137,1.82,211.6748,1.7444,1.74370414142,1.80078
2021-12-02T03:37:52Z,13.63224,1.344212,0.0,74.4739,0,1156,1.2936,0.7340317,2.6264,43690,0.0,1019.563,0.0,1.862,1017.762,0,218.578360296,1.412,35.74102,1.5876,1.58551242308,1.80078
2021-12-02T03:52:51Z,13.63224,0.8350486,0.0,78.9206,0,1156,1.47,0.7566262,1.9992,43690,0.0,1019.563,0.0,1.666,1017.762,0,15.8373551433,0.835,33.54787,1.2544,1.25405206272,1.80078
2021-12-02T04:07:50Z,13.63777,0.4277153,0.0,77.39311,0,1156,0.8624,0.6707726,2.4108,43690,0.0,1019.887,0.0,1.607,1018.086,0,40.5869484447,0.8010001,57.93756,1.3132,1.33210413314,1.80078
2021-12-02T04:22:54Z,13.6433,0.05432892,0.0,83.80859,0,1156,0.9211999,0.5013275,1.3524,43690,0.0,1019.887,0.0,1.352,1018.086,0,66.1877835795,-0.014,67.52956,0.9211999,0.925581155294,1.80078
2021-12-02T04:37:54Z,13.64883,0.1224289,0.0,82.75675,0,1156,1.2544,0.3522186,2.1364,43690,0.0,1019.887,0.0,1.94,1018.086,0,56.9282722203,0.157,59.52851,1.1956,1.21311241657,1.80078
2021-12-02T04:52:52Z,13.64928,0.225029,0.0,80.31428,0,1156,1.2544,0.2031097,1.8816,43690,0.0,1019.887,0.0,1.49,1018.086,0,67.9283970164,0.293,65.62722,1.2348,1.23456803905,1.80078
2021-12-02T05:07:51Z,13.64893,0.5304604,0.0,78.71871,0,1156,1.5876,0.2460327,2.45,43690,0.0,1019.569,0.0,2.195,1017.768,0,63.3245771185,0.565,67.02496,1.6464,1.6482556213,1.80078
2021-12-02T05:22:51Z,13.64335,0.7007599,0.0,75.63077,0,1156,2.548,0.4154778,3.4692,43690,0.0,1019.569,0.0,3.273,1017.768,0,66.4169757287,0.836,64.08553,2.4696,2.34991242604,1.80078
2021-12-02T05:37:52Z,13.63777,0.6653748,0.0,76.44276,0,1156,2.0384,0.541996,2.744,43690,0.0,1019.569,0.0,2.528,1017.768,0,66.3212222593,0.631,70.0843,1.9992,2.00256331361,1.80078
2021-12-02T05:52:56Z,13.63777,0.5974388,0.0,76.03533,0,1156,1.8816,0.6278458,3.4692,43690,0.0,1019.569,0.0,3.352,1017.768,0,60.4219033835,0.6990001,55.38291,2.0776,2.09097411765,1.80078
2021-12-02T06:07:54Z,13.63777,0.5634918,0.0,76.98578,0,1156,1.8228,0.7136994,3.1164,43690,0.0,1019.561,0.0,3.116,1017.76,0,58.8699064989,0.597,61.45623,1.8816,1.9071147929,1.80078
2021-12-02T06:22:53Z,13.63777,0.4616623,0.0,76.57845,0,1156,1.5484,0.7566262,3.332,43690,0.0,1019.561,0.0,2.94,1017.76,0,63.9478165038,0.53,67.38496,2.156,2.17212071006,1.80078
2021-12-02T06:37:57Z,13.6433,0.1561623,0.0,77.69861,0,1156,2.7832,0.5849228,3.626,43690,0.0,1019.561,0.0,3.332,1017.76,0,68.4274613491,0.258,71.31333,2.4598,2.39915529412,1.80078
2021-12-02T06:52:55Z,13.6433,0.2240486,0.0,78.71694,0,1156,2.8812,0.5013275,3.5868,43690,0.0,1019.561,0.0,3.018,1017.76,0,72.2524155903,0.224,74.9525,2.6264,2.65840946746,1.80078
2021-12-02T07:07:53Z,13.6433,0.2579956,0.0,78.41144,0,1156,2.8812,0.5013275,3.528,43690,0.0,1020.701,0.0,2.94,1018.9,0,74.6715523439,0.292,70.75902,2.6852,2.67847337278,1.80078
2021-12-02T07:22:57Z,13.63777,0.1561623,0.0,77.461,0,1156,3.2732,0.5216637,3.9004,43690,0.0,1020.701,0.0,3.802,1018.9,0,76.0103198937,0.19,76.97694,2.842,2.87243764706,1.80078
2021-12-02T07:37:56Z,13.63777,0.05432892,0.0,75.22067,0,1156,3.3908,0.541996,4.704,43690,0.0,1020.701,0.0,3.979,1018.9,0,71.1487989529,0.156,67.77056,3.3908,3.39601893491,1.80078